DELTA 1 DEB, 5443

Orbit data source: Space-Track

DELTA 1 DEB, 5443 is space debris in SSO originally from a launch on Fri, 10 Nov 1967 UTC launched from the Air Force Western Test Range (AFWTR). Debris objects in space refer to the collection of defunct objects orbiting the Earth. Examples of debris include non-operational satellites, rocket bodies, and fragments generated from explosions, collisions, or faulty payload assembly.

Loading next visibility...
Identifier
5443, 1967-114E
Orbit
SSO
Last TLE update
12 hours ago
Origin
Manufacturer
Unknown
Mission
Spacecraft
Bus & Motor
Unknown
Mass
Unknown
Launch date (UTC)
1967-11-10 (58 years ago)
Launch vehicle
Unknown
Launch site
Air Force Western Test Range (AFWTR)
Object type
Payload
Rocket body
Debris
Shape & HBR
Unknown
Radar Cross Section
Small (<0.1 m²)

Expand to show TLE details & history

TLE from 12 hours ago
0 DELTA 1 DEB
1 05443U 67114E   25181.87645272 -.00000020  00000-0  13907-3 0  9999
2 05443 101.3580 143.6685 0062306 358.4000  29.0251 12.56796566643124
Epoch: 2025-06-30T21:02Z
TLE epoch observation values (Epoch: 2025-06-30T21:02:05.514Z)
Latitude
27.2228°
Longitude
-96.93623°
Altitude
1,396.743 km
Speed
7.183 km/s
True Right ascension
09h 11m 04s
True Declination
27° 05' 41"
Sunlit
Object was in daylight at epoch
Visualization orbit readout
Latitude
-0.84068°
Longitude
89.29004°
Altitude
1,487.516 km
Speed
7.098 km/s
Apparent Right ascension
22h 37m 07s
Apparent Declination
-53° 03' 01"
Sunlit
Object is in full shadow
Visualization observer readout
Local Sidereal Time
20:56:56
Azimuth
165.191° S
Elevation
-5.456°
Doppler factor
1
Orbital elements
Apogee altitude
1,482.382 km
Perigee altitude
1,385.038 km
Semi-major axis
7,811.847 km
Eccentricity
0.00623
Inclination
101.358°
RAAN
143.6685°
Arg. of periapsis
358.4°
True anomaly
Unknown
Mean anomaly
29.0251°
Eccentric anomaly
Unknown
Mean motion
3.14349 °/min
Orbital period
114.52 mins
BSTAR
0.00013907
Loading maneuver chart data...
Loading SW <> Apogee altitude chart data...
Loading historical data...
Loading historical data...
Loading historical data...
Loading historical data...
Loading historical data...
Loading historical data...
Loading historical data...
Other satellites on launch #114 in the year 1967 (1967-11-10 UTC)

DELTA 1 DEB Visibility forecast

Observer location: undefined°, undefined°

Span
Click to sort rows by Start time (UTC) header in descending order
Start Az.
Max El. time (UTC)
Max El. Az.
Max El.
End time (UTC)
End Az.
16 mins2025-07-01 10:51:41.149Z11.413° NNE2025-07-01 10:59:41.149Z280.77° WNW42.911°2025-07-01 11:07:41.149Z211.27° SW
7 mins2025-07-01 12:47:41.149Z333.32° NNW2025-07-01 12:50:41.149Z309.735° NW15.143°2025-07-01 12:54:41.149Z280.283° WNW
11 mins2025-07-01 19:58:41.149Z109.357° ESE2025-07-01 20:03:41.149Z58.636° ENE28.565°2025-07-01 20:09:41.149Z3.676° NNE
14 mins2025-07-01 21:49:41.149Z184.936° SSW2025-07-01 21:55:41.149Z254.685° W39.556°2025-07-01 22:03:41.149Z334.819° NNW
|